EW5500 Weather Reports


Display with metric or nautical units.
time (UTC)temp
F
wind
direction
speed
MPH
gust
MPH
rain 1hr
in
rain 24hr
in
rain mn
in
humidity
%
barometer
mb
20260906223042 60 67 1.0 5.0 0.00 0.60 0.60 89 1012.3
20260906221541 60 75 2.0 7.0 0.00 0.60 0.60 89 1012.2
20260906220036 60 108 5.0 9.0 0.00 0.60 0.60 89 1012.2
20260906214534 59 61 4.0 7.0 0.00 0.60 0.60 90 1012.5
20260906213033 59 56 4.0 9.0 0.00 0.60 0.60 90 1012.5
20260906211532 59 85 4.0 9.0 0.00 0.60 0.60 90 1012.6
20260906210030 59 86 4.0 11.0 0.00 0.60 0.60 90 1012.6
20260906204528 60 65 3.0 8.0 0.00 0.60 0.60 91 1012.6
20260906203027 59 128 1.0 10.0 0.00 0.60 0.60 91 1012.7
20260906201524 59 74 3.0 10.0 0.00 0.60 0.60 93 1012.8
20260906200021 58 98 2.0 9.0 0.00 0.60 0.60 93 1013.0
20260906194520 58 113 4.0 8.0 0.00 0.60 0.60 93 1013.1
20260906193019 59 334 1.0 7.0 0.00 0.60 0.60 95 1013.2
20260906191517 58 115 2.0 7.0 0.04 0.60 0.60 95 1013.1
20260906190014 58 348 7.0 11.0 0.27 0.60 0.60 96 1013.3
20260906184511 57 11 4.0 8.0 0.27 0.60 0.60 97 1013.9
20260906183011 56 357 0.0 7.0 0.27 0.60 0.60 97 1014.4
20260906181510 56 258 4.0 15.0 0.23 0.56 0.56 96 1015.2
20260906180008 56 257 3.0 5.0 0.00 0.33 0.33 96 1015.2
20260906174508 56 80 3.0 6.0 0.00 0.33 0.33 96 1013.7
20260906173005 56 1 0.0 3.0 0.01 0.33 0.33 96 1014.8
20260906171504 55 356 1.0 7.0 0.02 0.33 0.33 96 1015.0
20260906170003 55 11 0.0 3.0 0.04 0.34 0.33 96 1015.4
20260906164502 55 352 2.0 7.0 0.06 0.34 0.33 96 1015.0
20260906163004 55 326 1.0 12.0 0.05 0.33 0.32 96 1015.0
20260906161604 55 23 2.0 10.0 0.03 0.31 0.31 95 1015.3
20260906160100 56 321 3.0 9.0 0.02 0.31 0.28 95 1015.7
20260906154605 56 283 1.0 8.0 0.00 0.30 0.28 95 1015.7
20260906153100 56 295 1.0 9.0 0.00 0.30 0.28 95 1015.2
20260906151558 57 319 2.0 4.0 0.00 0.30 0.28 95 1015.3
20260906150105 56 347 2.0 7.0 0.00 0.32 0.28 95 1015.0
20260906144554 56 297 2.0 8.0 0.00 0.32 0.28 96 1014.9
20260906143102 56 7 3.0 7.0 0.00 0.32 0.28 96 1015.0
20260906141559 55 325 2.0 6.0 0.00 0.32 0.28 96 1015.1
20260906140058 55 58 2.0 7.0 0.01 0.32 0.28 97 1015.2
20260906134549 55 255 3.0 7.0 0.01 0.32 0.28 97 1015.6
20260906133049 55 262 3.0 7.0 0.01 0.32 0.28 97 1015.7
20260906131555 55 91 0.0 0.0 0.01 0.32 0.28 97 1015.4
20260906130054 55 91 0.0 6.0 0.00 0.31 0.27 97 1015.5
20260906124547 55 84 4.0 10.0 0.00 0.31 0.27 97 1015.2
20260906123049 55 68 4.0 11.0 0.00 0.31 0.27 97 1015.0
20260906121544 54 72 6.0 11.0 0.00 0.31 0.27 97 1015.1
20260906120040 54 62 4.0 8.0 0.00 0.31 0.27 97 1015.3
20260906114547 54 58 4.0 7.0 0.01 0.31 0.27 97 1015.2
20260906113037 54 89 2.0 4.0 0.02 0.31 0.27 97 1015.5
20260906111543 54 77 1.0 4.0 0.02 0.31 0.27 97 1015.8
20260906110032 54 11 1.0 2.0 0.03 0.31 0.27 96 1016.3
20260906104541 54 49 0.0 2.0 0.04 0.31 0.26 96 1017.0
20260906103044 55 336 0.0 1.0 0.02 0.28 0.24 96 1017.3
20260906101535 54 356 1.0 4.0 0.02 0.28 0.24 96 1017.1
20260906100030 54 26 0.0 3.0 0.02 0.28 0.24 96 1017.2
20260906094541 54 302 0.0 4.0 0.02 0.27 0.22 96 1017.3
20260906093037 54 4 1.0 3.0 0.02 0.27 0.22 96 1017.2
20260906091535 54 265 0.0 3.0 0.02 0.27 0.22 96 1017.0
20260906090026 54 11 2.0 4.0 0.02 0.26 0.21 95 1016.9
20260906084527 55 342 0.0 4.0 0.06 0.25 0.20 95 1017.3
20260906083024 55 288 3.0 9.0 0.09 0.25 0.20 96 1017.2
20260906081523 55 243 0.0 5.0 0.09 0.25 0.20 96 1017.5
20260906080022 55 255 0.0 3.0 0.09 0.24 0.19 95 1017.8
20260906074523 55 143 0.0 4.0 0.10 0.19 0.14 95 1018.7
20260906073023 55 246 0.0 3.0 0.12 0.17 0.12 95 1018.7
20260906071520 55 205 0.0 8.0 0.12 0.17 0.12 95 1017.8
20260906070022 55 349 3.0 6.0 0.09 0.14 0.09 94 1017.4
20260906064517 56 243 1.0 6.0 0.04 0.09 0.04 93 1019.4
20260906063014 55 92 3.0 6.0 0.00 0.05 0.00 92 1018.9
20260906061511 55 40 0.0 5.0 0.00 0.05 0.00 91 1016.7
20260906060005 55 345 3.0 9.0 0.00 0.05 0.05 90 1016.0
20260906054505 56 172 0.0 1.0 0.00 0.05 0.05 90 1017.1
20260906053005 56 172 0.0 0.0 0.00 0.05 0.05 89 1018.1
20260906051503 56 172 0.0 1.0 0.00 0.05 0.05 88 1017.9
20260906050106 56 32 0.0 2.0 0.00 0.05 0.05 87 1017.4
20260906044602 56 307 1.0 4.0 0.00 0.05 0.05 87 1017.2
20260906043058 56 232 1.0 4.0 0.00 0.05 0.05 86 1016.7
20260906041557 56 312 1.0 4.0 0.00 0.05 0.05 87 1016.7
20260906040103 55 290 1.0 6.0 0.00 0.05 0.05 86 1016.8
20260906034556 55 228 0.0 3.0 0.00 0.05 0.05 86 1016.6
20260906033106 56 221 0.0 4.0 0.00 0.05 0.05 85 1016.5
20260906031612 56 299 2.0 5.0 0.00 0.05 0.05 82 1016.6
20260906030055 57 295 1.0 4.0 0.00 0.05 0.05 82 1016.5
20260906024605 57 309 0.0 2.0 0.00 0.05 0.05 82 1016.4
20260906023100 58 284 0.0 0.0 0.00 0.05 0.05 82 1016.3
20260906021552 60 300 0.0 1.0 0.00 0.05 0.05 79 1015.8
20260906020052 61 280 0.0 0.0 0.00 0.05 0.05 77 1015.9
20260906014554 62 280 0.0 0.0 0.00 0.05 0.05 73 1015.7
20260906013052 63 280 0.0 1.0 0.00 0.05 0.05 70 1015.7
20260906011551 64 311 0.0 2.0 0.00 0.05 0.05 68 1015.8
20260906010052 66 294 0.0 3.0 0.00 0.05 0.05 64 1015.9
20260906004550 67 327 0.0 5.0 0.00 0.05 0.05 63 1015.8
20260906003049 67 246 1.0 6.0 0.00 0.05 0.05 63 1015.8
20260906001547 67 328 2.0 5.0 0.00 0.05 0.05 63 1015.8
20260906000055 67 301 1.0 5.0 0.00 0.05 0.05 63 1015.9
20260905234550 66 349 2.0 7.0 0.00 0.05 0.05 65 1015.8
20260905233043 66 316 2.0 6.0 0.00 0.05 0.05 67 1015.8
20260905231541 65 288 1.0 7.0 0.00 0.05 0.05 69 1015.7
20260905230039 64 326 2.0 8.0 0.00 0.05 0.05 73 1015.7
20260905224539 64 241 0.0 4.0 0.00 0.05 0.05 75 1015.7